Location: Proctor
(47.8934°N, 114.3048°W)
Time: 12:18:40
(UTC+00:00)

AO-91 - Pass Details

Date: 27 June 2022
Orbit: 450 x 797 km, 97.7° (Epoch: 11 August)

Event Time Altitude Azimuth Distance (km) Brightness Sun altitude
Rises 07:42:26 0° 357° (N) 2,619 ? -18.8°
Reaches altitude 10° 07:45:16 10° 334° (NNW) 1,676 ? -18.8°
Maximum altitude 07:47:20 15° 298° (WNW) 1,360 ? -18.8°
Drops below altitude 10° 07:49:21 10° 262° (W) 1,612 ? -18.8°
Enters shadow 07:49:27 10° 261° (W) 1,638 ? -18.8°
